Ellsworth AFB, SD

5:14 PM MST on November 18, 2017 (GMT -0700)
Ellsworth Air Force Base

Weather History for KRCA - July, 2013

Change the Weather History Date:

Sunday, July 14, 2013

  Actual Average Record
Temperature  
Mean Temperature 68 °F -  
Max Temperature 71 °F 86 °F 104 °F (2000)
Min Temperature 63 °F 60 °F 50 °F (2014)
Cooling Degree Days 3    
Growing Degree Days 18 (Base 50)    
Moisture  
Dew Point 59 °F    
Average Humidity 79    
Maximum Humidity 85    
Minimum Humidity 68    
Precipitation  
Precipitation 0.00 in - - ()
Sea Level Pressure  
Sea Level Pressure 30.21 in    
Wind  
Wind Speed 15 mph (NNW)    
Max Wind Speed 24 mph    
Max Gust Speed 32 mph    
Visibility 10 miles    
Events Thunderstorm    
Averages and records for this station are not official NWS values.
T = Trace of Precipitation, MM = Missing Value Source: NWS Daily Summary

Daily Weather History Graph

Daily Weather History Graph

Search for Another Location

Airport or City:

Trip Planner

Search our weather history database for the weather conditions in past years. The results will help you decide how hot, cold, wet, or windy it might be!

Date:

Astronomy

Jul. 14, 2013 Rise Set
Actual Time 5:22 AM MDT 8:33 PM MDT
Civil Twilight 4:47 AM MDT 9:08 PM MDT
Nautical Twilight 4:01 AM MDT 9:54 PM MDT
Astronomical Twilight 3:06 AM MDT 10:49 PM MDT
Moon 11:57 AM MDT (7/14) 11:30 PM MDT (7/14)
Length of Visible Light 16h 21m
Length of Day
15h 11m
Waxing Crescent, 35% of the Moon is Illuminated
Jul 14
Waxing Crescent
Jul 15
First Quarter
Jul 22
Full
Jul 29
Last Quarter
Aug 6
New

Hourly Weather History & Observations

Time (MDT) Temp. Dew Point Humidity Pressure Visibility Wind Dir Wind Speed Gust Speed Precip Events Conditions
12:04 AM 73.4 °F 62.6 °F 69% 30.06 in 10.0 mi NNW 16.1 mph 26.5 mph N/A Thunderstorm Mostly Cloudy
12:55 AM 71.6 °F 62.6 °F 73% 30.07 in 10.0 mi North 24.2 mph 32.2 mph N/A   Overcast
1:58 AM 69.8 °F 62.6 °F 78% 30.01 in 10.0 mi North 21.9 mph 26.5 mph N/A   Mostly Cloudy
2:55 AM 66.2 °F 60.8 °F 83% 30.10 in 10.0 mi NNW 13.8 mph - N/A   Scattered Clouds
3:55 AM 68.0 °F 60.8 °F 78% 30.13 in 10.0 mi NNW 17.3 mph - N/A   Mostly Cloudy
4:55 AM 68.0 °F 60.8 °F 78% 30.16 in 10.0 mi NNW 18.4 mph - N/A   Overcast
5:44 AM 66.2 °F 59.0 °F 78% 30.17 in 10.0 mi NNW 20.7 mph 27.6 mph N/A   Mostly Cloudy
5:53 AM 66.2 °F 59.0 °F 78% 30.17 in 10.0 mi NNW 19.6 mph 27.6 mph N/A   Overcast
5:55 AM 64.4 °F 59.0 °F 83% 30.17 in 10.0 mi NNW 19.6 mph 27.6 mph N/A   Overcast
6:07 AM 66.2 °F 59.0 °F 78% 30.16 in 10.0 mi North 18.4 mph - N/A   Mostly Cloudy
6:10 AM 66.2 °F 59.0 °F 78% 30.17 in 10.0 mi NNW 18.4 mph - N/A   Mostly Cloudy
6:39 AM 64.4 °F 57.2 °F 77% 30.17 in 10.0 mi NNW 18.4 mph 24.2 mph N/A   Mostly Cloudy
6:55 AM 64.4 °F 57.2 °F 77% 30.17 in 10.0 mi North 20.7 mph 26.5 mph N/A   Overcast
7:55 AM 64.4 °F 57.2 °F 77% 30.19 in 10.0 mi NNW 16.1 mph - N/A   Overcast
8:10 AM 64.4 °F 57.2 °F 77% 30.20 in 10.0 mi North 12.7 mph - N/A   Overcast
8:55 AM 64.4 °F 59.0 °F 83% 30.21 in 10.0 mi North 21.9 mph - N/A   Overcast
9:40 AM 64.4 °F 59.0 °F 83% 30.22 in 10.0 mi North 12.7 mph - N/A   Overcast
9:41 AM 64.4 °F 59.0 °F 83% 30.22 in 10.0 mi North 13.8 mph - N/A   Overcast
9:47 AM 64.4 °F 59.0 °F 83% 30.22 in 10.0 mi North 15.0 mph - N/A   Overcast
9:53 AM 64.4 °F 59.0 °F 83% 30.22 in 10.0 mi North 15.0 mph - N/A   Overcast
9:55 AM 64.4 °F 59.0 °F 83% 30.22 in 10.0 mi North 15.0 mph - N/A   Overcast
9:58 AM 64.4 °F 59.0 °F 83% 30.22 in 10.0 mi North 16.1 mph - N/A   Overcast
10:49 AM 66.2 °F 59.0 °F 78% 30.23 in 10.0 mi North 13.8 mph - N/A   Overcast
10:55 AM 66.2 °F 59.0 °F 78% 30.23 in 10.0 mi North 10.4 mph - N/A   Overcast
11:55 AM 64.4 °F 59.0 °F 83% 30.24 in 10.0 mi North 16.1 mph - N/A   Overcast
12:55 PM 64.4 °F 59.0 °F 83% 30.24 in 10.0 mi NNE 15.0 mph - N/A   Overcast
12:59 PM 64.4 °F 57.2 °F 77% 30.24 in 10.0 mi North 13.8 mph - N/A   Overcast
1:50 PM 64.4 °F 57.2 °F 77% 30.25 in 10.0 mi North 12.7 mph - N/A   Light Drizzle
1:55 PM 64.4 °F 57.2 °F 77% 30.25 in 10.0 mi North 15.0 mph - N/A   Light Drizzle
2:08 PM 66.2 °F 59.0 °F 78% 30.26 in 10.0 mi North 11.5 mph - N/A   Overcast
2:10 PM 64.4 °F 57.2 °F 77% 30.26 in 10.0 mi North 10.4 mph - N/A   Overcast
2:46 PM 68.0 °F 59.0 °F 73% 30.24 in 10.0 mi North 13.8 mph - N/A   Overcast
2:49 PM 68.0 °F 59.0 °F 73% 30.24 in 10.0 mi North 16.1 mph - N/A   Overcast
2:55 PM 68.0 °F 59.0 °F 73% 30.24 in 10.0 mi North 12.7 mph - N/A   Overcast
2:58 PM 68.0 °F 59.0 °F 73% 30.24 in 10.0 mi NNE 12.7 mph - N/A   Overcast
3:22 PM 68.0 °F 59.0 °F 73% 30.23 in 10.0 mi NNE 11.5 mph - N/A   Overcast
3:24 PM 68.0 °F 59.0 °F 73% 30.23 in 10.0 mi NNE 11.5 mph - N/A   Overcast
3:33 PM 69.8 °F 59.0 °F 68% 30.22 in 10.0 mi North 12.7 mph - N/A   Overcast
3:55 PM 69.8 °F 59.0 °F 68% 30.22 in 10.0 mi NNE 11.5 mph - N/A   Partly Cloudy
4:17 PM 69.8 °F 59.0 °F 68% 30.22 in 10.0 mi NNE 12.7 mph - N/A   Mostly Cloudy
4:39 PM 68.0 °F 59.0 °F 73% 30.22 in 10.0 mi NNE 15.0 mph - N/A   Overcast
4:49 PM 66.2 °F 59.0 °F 78% 30.21 in 10.0 mi NNE 12.7 mph - N/A   Overcast
4:55 PM 66.2 °F 59.0 °F 78% 30.21 in 10.0 mi NNE 11.5 mph - N/A   Overcast
5:55 PM 66.2 °F 59.0 °F 78% 30.21 in 10.0 mi North 12.7 mph - N/A   Overcast
6:55 PM 64.4 °F 59.0 °F 83% 30.22 in 10.0 mi North 10.4 mph - N/A   Overcast
7:58 PM 63.3 °F 58.3 °F 84% 30.23 in 10.0 mi NE 4.6 mph - N/A   Overcast
8:58 PM 63.1 °F 58.3 °F 84% 30.23 in 10.0 mi North 3.5 mph - N/A   Overcast
9:33 PM 64.4 °F 59.0 °F 83% 30.24 in 10.0 mi WNW 2.3 mph - N/A   Overcast
9:43 PM 64.4 °F 59.0 °F 83% 30.24 in 10.0 mi WSW 4.6 mph - N/A   Overcast
9:48 PM 64.4 °F 59.0 °F 83% 30.24 in 10.0 mi WSW 3.5 mph - N/A   Overcast
9:58 PM 64.4 °F 59.0 °F 83% 30.24 in 10.0 mi WSW 3.5 mph - N/A   Overcast
10:03 PM 64.4 °F 59.0 °F 83% 30.24 in 10.0 mi West 4.6 mph - N/A   Overcast
10:13 PM 64.4 °F 59.0 °F 83% 30.24 in 10.0 mi West 5.8 mph - N/A   Overcast
10:18 PM 64.4 °F 59.0 °F 83% 30.24 in 10.0 mi West 5.8 mph - N/A   Overcast
10:33 PM 64.4 °F 59.0 °F 83% 30.23 in 10.0 mi West 5.8 mph - N/A   Overcast
10:58 PM 64.2 °F 59.0 °F 83% 30.23 in 10.0 mi West 4.6 mph - N/A   Overcast
11:08 PM 64.4 °F 59.0 °F 83% 30.23 in 10.0 mi WNW 5.8 mph - N/A   Overcast
11:10 PM 64.4 °F 59.0 °F 83% 30.23 in 10.0 mi WNW 6.9 mph - N/A   Overcast
11:20 PM 64.4 °F 59.0 °F 83% 30.23 in 10.0 mi West 5.8 mph - N/A   Overcast
11:55 PM 64.4 °F 59.0 °F 83% 30.22 in 10.0 mi West 1.2 mph - N/A   Overcast
11:58 PM 63.9 °F 59.4 °F 85% 30.22 in 10.0 mi West 1.2 mph - N/A   Overcast